Hamilton, OH

6:14 PM EDT on April 21, 2018 (GMT -0400)
Butler County Regional

Weather History for KHAO - May, 2013

Change the Weather History Date:

Saturday, May 11, 2013

  Actual Average (KLUK) Record (KLUK)
Temperature  
Mean Temperature 53 °F -  
Max Temperature 61 °F 76 °F 88 °F (1979)
Min Temperature 43 °F 51 °F 37 °F (1997)
Degree Days  
Heating Degree Days 12    
Growing Degree Days 3 (Base 50)    
Moisture  
Dew Point 48 °F    
Average Humidity 81    
Maximum Humidity 93    
Minimum Humidity 67    
Precipitation  
Precipitation 0.07 in - - ()
Sea Level Pressure  
Sea Level Pressure 29.92 in    
Wind  
Wind Speed 8 mph (WNW)    
Max Wind Speed 12 mph    
Max Gust Speed -    
Visibility 9 miles    
Events      
Averages and records for this station are not official NWS values.
T = Trace of Precipitation, MM = Missing Value Source: NWS Daily Summary

Daily Weather History Graph

Daily Weather History Graph

Search for Another Location

Airport or City:

Astronomy

May. 11, 2013 Rise Set
Actual Time 6:27 AM EDT 8:41 PM EDT
Civil Twilight 5:58 AM EDT 9:11 PM EDT
Nautical Twilight 5:21 AM EDT 9:48 PM EDT
Astronomical Twilight 4:41 AM EDT 10:28 PM EDT
Moon 7:35 AM EDT (5/11) 10:20 PM EDT (5/11)
Length of Visible Light 15h 13m
Length of Day
14h 13m
Waxing Crescent, 3% of the Moon is Illuminated
May 11
Waxing Crescent
May 18
First Quarter
May 25
Full
May 31
Last Quarter
Jun 8
New

Hourly Weather History & Observations

Time (EDT) Temp. Dew Point Humidity Pressure Visibility Wind Dir Wind Speed Gust Speed Precip Events Conditions
12:49 AM 60.8 °F 55.4 °F 82% 29.89 in 6.0 mi WNW 9.2 mph - N/A   Overcast
12:53 AM 60.1 °F 55.9 °F 86% 29.88 in 6.0 mi WNW 9.2 mph - N/A   Overcast
1:12 AM 59.0 °F 55.4 °F 88% 29.89 in 6.0 mi WNW 11.5 mph - N/A   Overcast
1:53 AM 57.0 °F 53.1 °F 87% 29.89 in 8.0 mi WNW 8.1 mph - N/A   Overcast
2:53 AM 55.9 °F 51.1 °F 84% 29.89 in 10.0 mi WNW 6.9 mph - N/A   Overcast
3:53 AM 54.0 °F 51.1 °F 90% 29.89 in 10.0 mi NNW 6.9 mph - N/A   Overcast
4:53 AM 53.1 °F 48.9 °F 86% 29.90 in 10.0 mi WNW 10.4 mph - N/A   Overcast
5:34 AM 53.6 °F 48.2 °F 82% 29.90 in 9.0 mi WNW 9.2 mph - N/A   Overcast
5:53 AM 52.0 °F 48.0 °F 86% 29.91 in 10.0 mi WNW 11.5 mph - N/A   Overcast
6:53 AM 51.1 °F 46.9 °F 86% 29.92 in 8.0 mi WNW 6.9 mph - N/A   Overcast
7:08 AM 51.8 °F 46.4 °F 82% 29.92 in 8.0 mi WNW 6.9 mph - N/A   Overcast
7:53 AM 51.1 °F 46.9 °F 86% 29.93 in 5.0 mi WNW 9.2 mph - N/A   Overcast
8:19 AM 50.0 °F 46.4 °F 87% 29.92 in 5.0 mi WNW 6.9 mph - N/A   Overcast
8:53 AM 51.1 °F 46.9 °F 86% 29.92 in 8.0 mi WNW 8.1 mph - N/A   Overcast
9:53 AM 51.1 °F 46.9 °F 86% 29.94 in 6.0 mi West 4.6 mph - N/A   Overcast
10:53 AM 52.0 °F 46.9 °F 83% 29.94 in 10.0 mi Variable 6.9 mph - N/A   Overcast
11:53 AM 53.1 °F 46.9 °F 80% 29.94 in 10.0 mi West 5.8 mph - N/A   Overcast
12:53 PM 53.1 °F 46.0 °F 77% 29.95 in 10.0 mi Variable 5.8 mph - N/A   Overcast
1:53 PM 53.1 °F 46.9 °F 80% 29.94 in 10.0 mi West 6.9 mph - N/A   Overcast
2:53 PM 54.0 °F 46.9 °F 77% 29.94 in 10.0 mi West 4.6 mph - N/A   Overcast
3:53 PM 55.0 °F 48.0 °F 77% 29.93 in 10.0 mi Variable 6.9 mph - N/A   Overcast
4:53 PM 57.0 °F 48.0 °F 72% 29.93 in 10.0 mi WSW 8.1 mph - N/A   Overcast
5:53 PM 59.0 °F 48.9 °F 69% 29.92 in 10.0 mi WSW 6.9 mph - N/A   Mostly Cloudy
6:01 PM 59.0 °F 48.2 °F 67% 29.92 in 10.0 mi West 8.1 mph - N/A   Overcast
6:53 PM 60.1 °F 48.9 °F 67% 29.90 in 10.0 mi SW 5.8 mph - N/A   Mostly Cloudy
7:53 PM 57.9 °F 48.9 °F 72% 29.90 in 10.0 mi SW 5.8 mph - N/A   Scattered Clouds
8:53 PM 55.0 °F 50.0 °F 83% 29.90 in 10.0 mi Calm Calm - N/A   Clear
9:53 PM 48.9 °F 44.1 °F 83% 29.98 in 10.0 mi North 10.4 mph - 0.07 in   Overcast
10:53 PM 46.9 °F 41.0 °F 80% 30.02 in 10.0 mi Calm Calm - N/A   Scattered Clouds
11:53 PM 43.0 °F 41.0 °F 93% 30.04 in 9.0 mi Calm Calm - N/A   Clear